Regional Weather Roundup
Issued by NWS

Home | Current Version | Previous Version | Text Only | Print | Product List | Glossary Off
Versions: 1 2 3 4 5 6 7 8 9 10 11 12 13 14 15 16 17 18 19 20 21 22 23 24 25 26 27 28 29 30 31 32 33 34 35 36 37 38 39 40 41 42 43 44 45 46 47 48 49 50

000
ASUS43 KIND 162009
RWRIN

WEATHER ROUNDUP FOR INDIANA
NATIONAL WEATHER SERVICE INDIANAPOLIS IN
400 PM EDT WED APR 16 2014

NOTE: "FAIR" INDICATES FEW OR NO CLOUDS BELOW 12,000 FEET WITH NO
SIGNIFICANT WEATHER AND/OR OBSTRUCTIONS TO VISIBILITY.

* - STATION DOES NOT REPORT WEATHER SUCH AS PRECIPITATION OR FOG.

+ - STATION NOT QUALITY CONTROLLED BY THE NATIONAL WEATHER SERVICE.
    USE DATA WITH CAUTION...ESPECIALLY DEWPOINT AND RELATIVE
    HUMIDITY OBSERVATIONS.

INZ001>003-010>013-019-020-162100-
NORTHWEST INDIANA

CITY           SKY/WX    TMP DP  RH WIND       PRES   REMARKS
GARY /AIRPORT/ PTSUNNY   50  21  32 SE17G35   30.23F
LA PORTE +     MOSUNNY   47  19  33 S16G25    30.26F
MICHIGAN CITY+ MOSUNNY   48  19  32 SE14G23   30.25F
MONTICELLO +   FAIR      48  24  39 SE13G20   30.26F
RENSSELAER +   SUNNY     50  23  34 SE12G21   30.25F
VALPARAISO     MOSUNNY   47  19  33 SE18G28   30.25F

$$

LMZ046-743>745-162100-
SOUTHERN LAKE MICHIGAN

STATION/POSITION TIME  TEMP WIND        PRES
                       AIR  DIR/SP/G
                 (UTC) (F)  (DEG/KT/KT) (MB)
MICHIGAN CITY    2000   46  120/ 17/ 26   N/A

$$

INZ004-005-014>016-021>024-162100-
NORTH CENTRAL INDIANA

CITY           SKY/WX    TMP DP  RH WIND       PRES   REMARKS
GOSHEN         SUNNY     48  20  32 SE18G26   30.30F
LOGANSPORT +   SUNNY     48  21  34 SE17G26   30.29F
PERU/GRISSOM   SUNNY     49  23  35 S15G28    30.28F
ROCHESTER +    SUNNY     50  23  34 SE15G22   30.29F
SOUTH BEND     SUNNY     49  19  30 S20G29    30.28F
WARSAW +       SUNNY     45  21  39 SE10G22   30.29F

$$

INZ006>009-017-018-025>027-162100-
NORTHEAST INDIANA

CITY           SKY/WX    TMP DP  RH WIND       PRES   REMARKS
ANGOLA *+      SUNNY     43  21  42 S15       30.33F
AUBURN +       SUNNY     45  19  36 SE7       30.33F
FORT WAYNE     PTSUNNY   47  20  34 SE16      30.33F

$$

INZ028-029-035-036-043>045-051>053-162100-
WEST CENTRAL INDIANA

CITY           SKY/WX    TMP DP  RH WIND       PRES   REMARKS
GREENCASTLE +  SUNNY     50  23  34 SE16      30.26F
LAFAYETTE      SUNNY     50  22  33 S18G24    30.25F
TERRE HAUTE    MOSUNNY   51  25  36 S13G22    30.25F

$$

INZ030>032-037>040-046>048-054>057-064-065-162100-
CENTRAL INDIANA

CITY           SKY/WX    TMP DP  RH WIND       PRES   REMARKS
ANDERSON       SUNNY     48  21  34 SE17G23   30.32F
CP ATTERBURY + MOSUNNY   50  21  32 SE9       30.30F
COLUMBUS       SUNNY     48  19  32 SE16      30.31F
INDIANAPOLIS   MOSUNNY   48  22  35 SE18      30.27F
-EAGLE CREEK   SUNNY     48  21  34 SE17      30.27F
KOKOMO *+      SUNNY     48  27  43 SE17G24   30.28F
MARION +       SUNNY     47  20  34 SE16      30.31F
MT COMFORT *+  SUNNY     50  25  37 S13G18    30.29F
SHELBYVILLE    SUNNY     51  23  33 SE16G22   30.29F
ZIONSVILLE +   SUNNY     49  20  32 SE13      30.28F

$$

INZ033-034-041-042-049-050-058-059-162100-
EAST CENTRAL INDIANA

CITY           SKY/WX    TMP DP  RH WIND       PRES   REMARKS
MUNCIE         SUNNY     47  21  35 SE12      30.30F

$$

INZ060-061-067>069-081>083-085>088-162100-
SOUTHWEST INDIANA

CITY           SKY/WX    TMP DP  RH WIND       PRES   REMARKS
EVANSVILLE     SUNNY     52  26  36 S14G20    30.25F
HUNTINGBURG *+ SUNNY     54  25  32 S13       30.27F
WASHINGTON +   SUNNY     52  29  41 S12       30.25F

$$

INZ062-063-066-070>080-084-089>092-162100-
SOUTH CENTRAL AND SOUTHEAST INDIANA

CITY           SKY/WX    TMP DP  RH WIND       PRES   REMARKS
BLOOMINGTON    MOSUNNY   50  21  32 SE14G21   30.27F
SEYMOUR +      SUNNY     46   5  18 SE14      30.31

$$




USA.gov is the U.S. government's official web portal to all federal, state and local government web resources and services.